Weather in Ayangaty

Russia / Tyva Republic     50°59′36″N   90°50′39″E
temp.,
°C
wind,
m/s
gust,
m/s
humid.,
%
clouds,
%
prec.,
mm/h
press.,
hPa
HPBL,
m
27 february, sat
sat2701:00−25s116749 0.0 103720
04:00−27ssw117271 0.0 103820
07:00−27ssw117579 0.0 103920
10:00−23n117356 0.0 103864
13:00−21nne228468 0.0 1035238
16:00−20ne1186100 0.0 1033192
19:00−25s119296 0.0 103620
22:00−27s118850 0.0 103920
28 february, sun
sun2801:00−27s118533 0.0 104120
04:00−28ssw01830 0.0 104219
07:00−28ssw01790 0.0 104419
10:00−24nnw11790 0.0 104352
13:00−20nne21830 0.0 1039190
16:00−19nne21840 0.0 1037155
19:00−25ese009511 0.0 103920
22:00−25e0188100 0.0 103921
1 march, mon
mon101:00−23ene0185100 0.0 103720
04:00−25ene0187100 0.0 103620
07:00−26ene1185100 0.0 103420
10:00−21n218691 0.0 103174
13:00−19nne219295 0.0 1026138
16:00−17nne2292100 0.0 1023121
19:00−18ne1295100 0.0 102322
22:00−18ne1292100 0.0 102222
2 march, tue
tue201:00−18ene0190100 0.0 102224
04:00−17n0186100 0.0 102126
07:00−14nw1280100 0.0 102127
10:00−12nw137763 0.0 1020236
13:00−7nw247246 0.0 1019459
16:00−4wnw237234 0.0 1017361
19:00−8sw117068 0.0 101926
22:00−10wsw1171100 0.0 102023
3 march, wed
wed301:00−13ssw117299 0.0 101822
04:00−14sw017699 0.0 101721
07:00−13w1180100 0.0 101621
10:00−11nne1184100 0.0 101561
13:00−6ne127688 0.0 1013274
16:00−4nw247591 0.0 1012505
19:00−8wsw247394 0.1 1015121
22:00−9ssw2271100 0.1 102025